Weather Roundup
Issued by NWS

Home | Current Version | Previous Version | Graphics & Text | Print | Product List | Glossary Off
Versions: 1 2 3 4 5 6 7 8 9 10 11 12 13 14 15 16 17 18 19 20 21 22 23 24 25 26 27 28 29 30 31 32 33 34 35 36 37 38 39 40 41 42 43 44 45 46 47 48 49 50

000
NZUS93 KARX 190810
HRRWXR

CURRENT HOURLY OBSERVATIONS ACROSS
MUCH OF THE UPPER MISSISSIPPI VALLEY
NATIONAL WEATHER SERVICE LA CROSSE WI
300 AM CDT THU APR 19 2018


...SOUTHEAST MINNESOTA...


CITY           SKY/WX    TMP DP  RH WIND       PRES   REMARKS
ROCHESTER      FAIR      23  21  92 NW9       30.24R WCI  13
ROCHESTER/MAYO FAIR      29  23  78 NW5       30.25R WCI  24
WINONA         FAIR      30  28  93 CALM      30.23R
AUSTIN         FAIR      25  21  86 NW7       30.25R WCI  17
ALBERT LEA     FAIR      25  21  86 N5        30.27R WCI  19
DODGE CENTER   FAIR      21  18  86 NW8       30.26R WCI  12
PRESTON        FAIR      26  21  82 N7        30.23R WCI  18
OWATONNA       FAIR      19  18  93 CALM      30.27R
FARIBAULT      FAIR      21  18  86 CALM      30.28R
$$

...ELSEWHERE IN MINNESOTA...


CITY           SKY/WX    TMP DP  RH WIND       PRES   REMARKS
MINNEAPOLIS    FAIR      28  17  63 CALM      30.29R
INTNL FALLS    FAIR      22  19  89 CALM      30.30R
DULUTH         FAIR      29  10  45 N6        30.27R WCI  23
RED WING       FAIR      28  14  54 CALM      30.27R
REDWOOD FALLS  MOCLDY    30  17  58 W5        30.32R WCI  25
MANKATO        FAIR      24  19  81 NW5       30.30R WCI  18
WORTHINGTON    PTCLDY    23  19  85 N14       30.29R WCI  11
FAIRMONT       CLOUDY    26  21  81 N10       30.30R WCI  16
$$

...SOUTHWEST WISCONSIN...


CITY           SKY/WX    TMP DP  RH WIND       PRES   REMARKS
LA CROSSE      FAIR      25  24  96 N5        30.22R WCI  19
PRAIRIE DU CHI FAIR      28  26  96 NW3       30.20R FOG
BOSCOBEL       FAIR      25  23  92 CALM      30.20R FOG
LONE ROCK      FAIR      27  26  96 W6        30.17R WCI  20
PLATTEVILLE    CLOUDY    32  32  99 N8        30.15R WCI  25
FORT MC COY    FOG       13  12  95 CALM      30.22R VSB 1/2
CAMP DOUGLAS   FAIR      20  20  98 W8        30.17R WCI  11
MAUSTON-NEW LI FAIR      25  22  89 W5        30.17R WCI  19
VIROQUA        FAIR      24  24 100 N5        30.18R WCI  18
WIS DELLS      FAIR      25  25  98 CALM      30.14R
$$

...ELSEWHERE IN WISCONSIN...


CITY           SKY/WX    TMP DP  RH WIND       PRES   REMARKS
MILWAUKEE      FAIR      34  27  75 NW9       30.07R WCI  27
MADISON        FAIR      28  25  88 N8        30.12R WCI  20
GREEN BAY      FAIR      33  20  58 N17       30.11R WCI  22
EAU CLAIRE     FAIR      24  17  74 CALM      30.23R
BLACK RVR FLS  FOG       15  14  95 CALM      30.21R VSB 3/4
MEDFORD        FAIR      26  13  57 N6        30.18R WCI  20
WAUSAU         FAIR      28  17  63 NW6       30.15R WCI  22
WIS RAPIDS     FAIR      29  14  53 N7        30.17R WCI  22
MARSHFIELD     FAIR      30  16  56 N9        30.15R WCI  22
RICE LAKE      FAIR      28  15  57 CALM      30.26R
$$

...NORTHEAST IOWA...


CITY           SKY/WX    TMP DP  RH WIND       PRES   REMARKS
WATERLOO       FAIR      28  26  92 NW10      30.21R WCI  19
DUBUQUE        CLOUDY    32  29  88 N9        30.15R WCI  24
DECORAH        FAIR      30  27  86 N8        30.20R WCI  23
MASON CITY     CLOUDY    24  21  88 N12       30.26R WCI  13
CHARLES CITY   FAIR      25  25 100 N10       30.23R WCI  15
OELWEIN        FAIR      27  27 100 N10       30.20R WCI  17
$$

...ELSEWHERE IN IOWA...


CITY           SKY/WX    TMP DP  RH WIND       PRES   REMARKS
DES MOINES     CLOUDY    32  29  88 NW7       30.25R WCI  26
IOWA CITY      CLOUDY    34  30  85 NW9       30.20R WCI  27
FORT DODGE     PTCLDY    32  29  88 N6        30.26R WCI  26
MARSHALLTOWN   CLOUDY    33  30  88 NW15      30.21R WCI  23
CEDAR RAPIDS   CLOUDY    32  31  96 NW10      30.17R WCI  24
$$

...NORTHERN ILLINOIS...


CITY           SKY/WX    TMP DP  RH WIND       PRES   REMARKS
CHICAGO-OHARE  FLURRIES  33  33 100 NE13      30.04R WCI  24
CHICAGO-MIDWAY LGT SNOW  35  34  96 N12       30.03R FOG     WCI  27
MOLINE         CLOUDY    34  31  88 NW10      30.15R WCI  26
ROCKFORD       CLOUDY    33  29  85 N10       30.11R WCI  25
PEORIA         CLOUDY    34  29  82 NW8G18    30.11S WCI  27
$$

NOTE: "FAIR" INDICATES FEW OR NO CLOUDS BELOW 12,000 FEET WITH NO
SIGNIFICANT WEATHER AND/OR OBSTRUCTIONS TO VISIBILITY. WIND
SPEEDS ARE IN MILES-PER-HOUR.




USA.gov is the U.S. government's official web portal to all federal, state and local government web resources and services.